Darstellungsparameter: Aktuell verwendete Einstellungen:
Skalierung der Graphiken ... ?
xyx+y,   Skalierungsfaktor:      Skalierung: Modus: x, Faktor: 1
Darstellungszeitraum ... ?
Vom - - bis: - -   Zeitraum: 14.10.2010 - 14.10.2010
Min/Max/Avg-Anzeige ... ?
Zeige MMA aktuell
Zeige MMA Monat
Zeige MMA alles
Zeige --A aktuell
Zeige --A Monat
Zeige --A alles
Keine MMA-Anzeige
MMA:
Minimum Maximum Average (ber die Originaldaten)
MMA-Basis: 14.10.2010 - 14.10.2010
Quicknavigation für Darstellung... ?
Tage:      1T, 2T, 3T, 5T -1T -2T -3T -5T +1T +2T +3T +5T
Wochen: 1W, 2W, 3W -1W -2W -3W +1W +2W +3W
Monate: 1M, 3M, 6M -1M -3M -6M +1M +3M +6M
Jahre:    1J, 3J, 5J, 10J -1J -3J -5J -10J +1J +3J +5J +10J
Nutze für die Darstellung ... ?
Originaldaten oder Mittelwerte auf ...
Stundenbasis Tagesbasis Wochenbasis
Monatsbasis Jahresbasis      Datenbasis: Original-Daten
Darstellen als:
Statistik (Auto) Statistik J:M      Darstellung:
Zur Graphik,    zurück zur Übersicht aller Sensoren.
 
Tabellarische Datenbersicht: ?
 
Sensor: Nr:Datum:Temp:Abs-Feuchte:Windchill:Wind:
Aussen-T/F 1 14-10-2010 00:02:03 4.1 C 5.5 g/m*3 4.1 C 0 km/h
2 14-10-2010 00:14:03 4.1 C 5.57 g/m*3 4.1 C 0 km/h
3 14-10-2010 00:26:03 3.9 C 5.56 g/m*3 3.9 C 0 km/h
4 14-10-2010 00:38:03 3.7 C 5.48 g/m*3 3.7 C 0 km/h
5 14-10-2010 00:50:03 3.6 C 5.45 g/m*3 3.6 C 0 km/h
6 14-10-2010 01:02:04 3.4 C 5.44 g/m*3 3.4 C 0 km/h
7 14-10-2010 01:14:04 3.4 C 5.44 g/m*3 3.4 C 0 km/h
8 14-10-2010 01:26:04 3.3 C 5.4 g/m*3 3.3 C 0 km/h
9 14-10-2010 01:38:04 3.3 C 5.46 g/m*3 3.3 C 0 km/h
10 14-10-2010 01:50:04 3.5 C 5.6 g/m*3 3.5 C 0 km/h
11 14-10-2010 02:02:04 3.6 C 5.63 g/m*3 3.6 C 0 km/h
12 14-10-2010 02:14:04 3.5 C 5.6 g/m*3 3.5 C 0 km/h
13 14-10-2010 02:26:04 3.6 C 5.63 g/m*3 3.6 C 0 km/h
14 14-10-2010 02:38:04 3.7 C 5.73 g/m*3 3.7 C 0 km/h
15 14-10-2010 02:50:04 3.7 C 5.67 g/m*3 3.7 C 0 km/h
16 14-10-2010 03:02:04 3.6 C 5.63 g/m*3 3.6 C 0 km/h
17 14-10-2010 03:14:04 3.5 C 5.6 g/m*3 3.5 C 0 km/h
18 14-10-2010 03:26:04 3.6 C 5.57 g/m*3 3.6 C 0 km/h
19 14-10-2010 03:38:04 3.5 C 5.53 g/m*3 3.5 C 0 km/h
20 14-10-2010 03:50:04 3.4 C 5.5 g/m*3 3.4 C 0 km/h
21 14-10-2010 04:02:04 3.4 C 5.5 g/m*3 3.4 C 0 km/h
22 14-10-2010 04:14:04 3.5 C 5.53 g/m*3 3.5 C 0 km/h
23 14-10-2010 04:26:04 3.6 C 5.57 g/m*3 3.6 C 0 km/h
24 14-10-2010 04:38:04 3.6 C 5.57 g/m*3 3.6 C 0 km/h
25 14-10-2010 04:50:04 3.6 C 5.57 g/m*3 3.6 C 0 km/h
Sensor: Nr:Datum:Temp:Abs-Feuchte:Windchill:Wind:
Aussen-T/F 26 14-10-2010 05:02:05 3.5 C 5.53 g/m*3 3.5 C 0 km/h
27 14-10-2010 05:14:05 3.6 C 5.63 g/m*3 3.6 C 0 km/h
28 14-10-2010 05:26:05 3.6 C 5.63 g/m*3 3.6 C 0 km/h
29 14-10-2010 05:38:05 3.6 C 5.63 g/m*3 3.6 C 0 km/h
30 14-10-2010 05:50:05 3.8 C 5.71 g/m*3 3.8 C 0 km/h
31 14-10-2010 06:02:05 3.9 C 5.75 g/m*3 3.9 C 0 km/h
32 14-10-2010 06:14:05 3.9 C 5.75 g/m*3 3.9 C 0 km/h
33 14-10-2010 06:26:05 3.9 C 5.68 g/m*3 3.9 C 0 km/h
34 14-10-2010 06:38:05 3.9 C 5.68 g/m*3 3.9 C 0 km/h
35 14-10-2010 06:50:01 4 C 5.66 g/m*3 4 C 0 km/h
36 14-10-2010 07:02:02 4 C 5.66 g/m*3 4 C 0 km/h
37 14-10-2010 07:14:02 4 C 5.72 g/m*3 4 C 0 km/h
38 14-10-2010 07:26:02 4.1 C 5.76 g/m*3 4.1 C 0 km/h
39 14-10-2010 07:38:01 4.2 C 5.8 g/m*3 4.2 C 0 km/h
40 14-10-2010 07:50:02 4.3 C 5.84 g/m*3 4.3 C 0 km/h
41 14-10-2010 08:02:01 4.4 C 5.88 g/m*3 4.4 C 0 km/h
42 14-10-2010 08:14:01 4.5 C 5.85 g/m*3 4.5 C 0 km/h
43 14-10-2010 08:26:01 4.5 C 5.85 g/m*3 4.5 C 0 km/h
44 14-10-2010 08:38:02 4.4 C 5.81 g/m*3 4.4 C 0 km/h
45 14-10-2010 08:50:02 4.4 C 5.81 g/m*3 4.4 C 0 km/h
46 14-10-2010 09:02:02 4.5 C 5.85 g/m*3 4.5 C 0 km/h
47 14-10-2010 09:14:02 4.4 C 5.81 g/m*3 4.4 C 0 km/h
48 14-10-2010 09:26:02 4.6 C 5.89 g/m*3 4.6 C 0 km/h
49 14-10-2010 09:38:02 4.6 C 5.89 g/m*3 4.6 C 0 km/h
50 14-10-2010 09:50:02 4.7 C 5.86 g/m*3 4.7 C 0 km/h
Sensor: Nr:Datum:Temp:Abs-Feuchte:Windchill:Wind:
Aussen-T/F 51 14-10-2010 10:02:02 5 C 5.91 g/m*3 5 C 0 km/h
52 14-10-2010 10:14:02 5 C 5.91 g/m*3 5 C 0 km/h
53 14-10-2010 10:26:02 5 C 5.78 g/m*3 5 C 0 km/h
54 14-10-2010 10:38:02 5.2 C 5.85 g/m*3 5.2 C 0 km/h
55 14-10-2010 10:50:02 5.6 C 5.94 g/m*3 5.6 C 0 km/h
56 14-10-2010 11:02:02 6 C 5.95 g/m*3 6 C 0 km/h
57 14-10-2010 11:14:02 5.9 C 5.77 g/m*3 5.9 C 0 km/h
58 14-10-2010 11:26:02 6.2 C 5.74 g/m*3 6.2 C 0 km/h
59 14-10-2010 11:38:02 6.1 C 5.55 g/m*3 6.1 C 0 km/h
60 14-10-2010 11:50:02 6.8 C 5.74 g/m*3 6.8 C 0 km/h
61 14-10-2010 12:02:02 7 C 5.58 g/m*3 7 C 0 km/h
62 14-10-2010 12:14:02 7.5 C 5.68 g/m*3 7.5 C 0 km/h
63 14-10-2010 12:26:02 8 C 5.62 g/m*3 8 C 0 km/h
64 14-10-2010 12:38:01 8.4 C 5.51 g/m*3 8.4 C 0 km/h
65 14-10-2010 12:50:02 8.4 C 5.51 g/m*3 8.4 C 0 km/h
66 14-10-2010 13:02:01 9.2 C 5.63 g/m*3 9.2 C 0 km/h
67 14-10-2010 13:14:01 8.7 C 5.36 g/m*3 8.7 C 0 km/h
68 14-10-2010 13:26:02 9.4 C 5.61 g/m*3 9.4 C 0 km/h
69 14-10-2010 13:38:02 9.6 C 5.59 g/m*3 9.6 C 0 km/h
70 14-10-2010 13:50:02 9.9 C 5.7 g/m*3 9.9 C 0 km/h
71 14-10-2010 14:02:03 10.8 C 5.83 g/m*3 10.8 C 0 km/h
72 14-10-2010 14:14:03 11.4 C 5.85 g/m*3 11.4 C 0 km/h
73 14-10-2010 14:26:02 11.9 C 5.82 g/m*3 11.9 C 0 km/h
74 14-10-2010 14:38:02 12.3 C 5.86 g/m*3 12.3 C 0 km/h
75 14-10-2010 14:50:01 12.9 C 5.86 g/m*3 12.9 C 0 km/h
Sensor: Nr:Datum:Temp:Abs-Feuchte:Windchill:Wind:
Aussen-T/F 76 14-10-2010 15:02:02 13.1 C 5.71 g/m*3 13.1 C 0 km/h
77 14-10-2010 15:14:02 13.8 C 5.84 g/m*3 13.8 C 0 km/h
78 14-10-2010 15:26:01 14 C 5.67 g/m*3 14 C 0 km/h
79 14-10-2010 15:38:01 14.4 C 5.81 g/m*3 14.4 C 0 km/h
80 14-10-2010 15:50:01 14.4 C 5.56 g/m*3 14.4 C 0 km/h
81 14-10-2010 16:02:02 14.7 C 5.67 g/m*3 14.7 C 0 km/h
82 14-10-2010 16:14:02 14.7 C 5.67 g/m*3 14.7 C 0 km/h
83 14-10-2010 16:26:02 14.4 C 5.81 g/m*3 14.4 C 0 km/h
84 14-10-2010 16:38:01 14 C 6.03 g/m*3 14 C 0 km/h
85 14-10-2010 16:50:02 14.2 C 5.98 g/m*3 14.2 C 0 km/h
86 14-10-2010 17:02:01 13.5 C 5.5 g/m*3 13.5 C 0 km/h
87 14-10-2010 17:14:01 13.4 C 5.46 g/m*3 13.4 C 0 km/h
88 14-10-2010 17:26:02 13.4 C 5.46 g/m*3 13.4 C 0 km/h
89 14-10-2010 17:38:01 13 C 5.33 g/m*3 13 C 0 km/h
90 14-10-2010 17:50:02 12.9 C 5.75 g/m*3 12.9 C 0 km/h
91 14-10-2010 18:02:02 12 C 5.75 g/m*3 12 C 0 km/h
92 14-10-2010 18:14:02 11.6 C 5.92 g/m*3 11.6 C 0 km/h
93 14-10-2010 18:26:02 10.9 C 5.97 g/m*3 10.9 C 0 km/h
94 14-10-2010 18:38:03 10.5 C 6.01 g/m*3 10.5 C 0 km/h
95 14-10-2010 18:50:02 10.2 C 6.09 g/m*3 10.2 C 0 km/h
96 14-10-2010 19:02:02 10.2 C 6.19 g/m*3 10.2 C 0 km/h
97 14-10-2010 19:14:02 10.2 C 6.19 g/m*3 10.2 C 0 km/h
98 14-10-2010 19:26:02 10.3 C 6.22 g/m*3 10.3 C 0 km/h
99 14-10-2010 19:38:02 10.3 C 6.32 g/m*3 10.3 C 0 km/h
100 14-10-2010 19:50:02 10.3 C 6.32 g/m*3 10.3 C 0 km/h
Sensor: Nr:Datum:Temp:Abs-Feuchte:Windchill:Wind:
Aussen-T/F 101 14-10-2010 20:02:02 10.3 C 6.32 g/m*3 10.3 C 0 km/h
102 14-10-2010 20:14:02 10.2 C 6.19 g/m*3 10.2 C 0 km/h
103 14-10-2010 20:26:02 10.2 C 6.19 g/m*3 10.2 C 0 km/h
104 14-10-2010 20:38:02 10.2 C 6.28 g/m*3 10.2 C 0 km/h
105 14-10-2010 20:50:02 10.1 C 6.24 g/m*3 10.1 C 0 km/h
106 14-10-2010 21:02:02 9.9 C 6.26 g/m*3 9.9 C 0 km/h
107 14-10-2010 21:14:02 9.7 C 6.27 g/m*3 9.7 C 0 km/h
108 14-10-2010 21:26:02 9.8 C 6.4 g/m*3 9.8 C 0 km/h
109 14-10-2010 21:38:02 9.8 C 6.4 g/m*3 9.8 C 0 km/h
110 14-10-2010 21:51:04 9.8 C 6.31 g/m*3 9.8 C 0 km/h
111 14-10-2010 22:03:04 9.7 C 6.36 g/m*3 9.7 C 0 km/h
112 14-10-2010 22:15:04 9.7 C 6.45 g/m*3 9.7 C 0 km/h
113 14-10-2010 22:27:04 9.8 C 6.59 g/m*3 9.8 C 0 km/h
114 14-10-2010 22:39:05 9.8 C 6.59 g/m*3 9.8 C 0 km/h
115 14-10-2010 22:51:05 9.7 C 6.55 g/m*3 9.7 C 0 km/h
116 14-10-2010 23:03:05 9.7 C 6.64 g/m*3 9.7 C 0 km/h
117 14-10-2010 23:15:05 9.7 C 6.64 g/m*3 9.7 C 0 km/h
118 14-10-2010 23:27:05 9.7 C 6.73 g/m*3 9.7 C 0 km/h
119 14-10-2010 23:39:05 9.7 C 6.73 g/m*3 9.7 C 0 km/h
120 14-10-2010 23:51:05 9.6 C 6.69 g/m*3 9.6 C 0 km/h

Legende:
   Min
   Max


Maximal/Minimal-Werte vom 14.10.2010 - 14.10.2010

Sensor Min Max Avg
Temp
(Aussen-T/F)
3.3 °C
14-10-2010  01:26:04
14.7 °C
14-10-2010  16:02:02
7.56 °C
Abs-Feuchte
(Aussen-T/F)
5.33 g/m*3
14-10-2010  17:38:01
6.73 g/m*3
14-10-2010  23:27:05
5.79 g/m*3
Windchill
(Aussen-T/F)
3.3 C
14-10-2010  01:26:04
14.7 C
14-10-2010  16:02:02
7.49 C

Die Daten stammen von einer Davis Vantage Pro 2 Wetter-Station und werden unter Linux mit der Software wview2wettercgi und aufbereitet. Alle Angaben erfolgen ohne Gewähr für ihre Vollständigkeit oder Richtigkeit.
Kontakt: Rainer Krienke krienke@uni-koblenz.de . Meine Webseiten an der Uni Koblenz oder privat.
Version: $Revision: 0.78 $